TimeEDT,TemperatureF,Dew PointF,Humidity,Sea Level PressureIn,VisibilityMPH,Wind Direction,Wind SpeedMPH,Gust SpeedMPH,PrecipitationIn,Events,Conditions,WindDirDegrees,DateUTC
12:53 AM,72.0,64.0,76,30.13,10.0,Calm,Calm,-,N/A,,Mostly Cloudy,0,2013-04-25 04:53:00
1:53 AM,71.1,63.0,75,30.13,10.0,Calm,Calm,-,N/A,,Mostly Cloudy,0,2013-04-25 05:53:00
2:53 AM,68.0,64.0,87,30.13,10.0,North,4.6,-,N/A,,Scattered Clouds,350,2013-04-25 06:53:00
3:53 AM,68.0,64.0,87,30.13,10.0,Calm,Calm,-,N/A,,Mostly Cloudy,0,2013-04-25 07:53:00
4:53 AM,69.1,64.0,84,30.14,10.0,Calm,Calm,-,N/A,,Scattered Clouds,0,2013-04-25 08:53:00
5:53 AM,68.0,64.0,87,30.14,10.0,Calm,Calm,-,N/A,,Scattered Clouds,0,2013-04-25 09:53:00
6:53 AM,68.0,63.0,84,30.16,10.0,Calm,Calm,-,N/A,,Partly Cloudy,0,2013-04-25 10:53:00
7:53 AM,70.0,63.0,78,30.18,10.0,Calm,Calm,-,N/A,,Mostly Cloudy,0,2013-04-25 11:53:00
8:53 AM,73.9,64.0,71,30.19,10.0,Variable,4.6,-,N/A,,Mostly Cloudy,0,2013-04-25 12:53:00
9:53 AM,77.0,64.0,64,30.20,10.0,South,8.1,-,N/A,,Scattered Clouds,180,2013-04-25 13:53:00
10:53 AM,78.1,64.0,62,30.21,10.0,SW,9.2,-,N/A,,Scattered Clouds,220,2013-04-25 14:53:00
11:53 AM,80.1,63.0,56,30.22,10.0,SW,6.9,-,N/A,,Scattered Clouds,220,2013-04-25 15:53:00
12:53 PM,81.0,62.1,52,30.21,10.0,Variable,3.5,-,N/A,,Scattered Clouds,0,2013-04-25 16:53:00
1:53 PM,82.9,64.0,53,30.20,10.0,SW,6.9,-,N/A,,Scattered Clouds,230,2013-04-25 17:53:00
2:53 PM,82.9,66.0,56,30.18,10.0,WSW,10.4,-,N/A,,Scattered Clouds,250,2013-04-25 18:53:00
3:53 PM,82.9,66.0,56,30.16,10.0,WNW,11.5,20.7,N/A,,Scattered Clouds,290,2013-04-25 19:53:00
4:53 PM,82.9,64.9,54,30.15,10.0,West,11.5,-,N/A,,Scattered Clouds,280,2013-04-25 20:53:00
5:53 PM,81.0,66.0,60,30.15,10.0,WNW,12.7,-,N/A,,Scattered Clouds,290,2013-04-25 21:53:00
6:53 PM,80.1,64.9,60,30.16,10.0,NW,6.9,18.4,N/A,,Mostly Cloudy,310,2013-04-25 22:53:00
7:53 PM,77.0,63.0,62,30.17,10.0,NW,8.1,-,N/A,,Mostly Cloudy,320,2013-04-25 23:53:00
8:53 PM,75.0,62.1,64,30.18,10.0,NNW,6.9,-,N/A,,Scattered Clouds,330,2013-04-26 00:53:00
9:53 PM,73.9,63.0,68,30.21,10.0,NNW,8.1,-,N/A,,Scattered Clouds,340,2013-04-26 01:53:00
10:53 PM,73.0,64.0,73,30.22,10.0,North,5.8,-,N/A,,Scattered Clouds,360,2013-04-26 02:53:00
11:53 PM,73.0,64.0,73,30.23,10.0,ENE,4.6,-,N/A,,Mostly Cloudy,70,2013-04-26 03:53:00